+ View the NASA Portal
+ Center for Near-Earth Object Studies
IMPORTANT:
The SSD Announcement email list is now available. Major changes are coming in the near future, including possible hostname and/or URL changes. To be notified of such changes, subscribe to this email list.
Please visit
this page
for more details.
Don't show this message again
JPL Small-Body Database Browser
Search:
[
help
]
437985 (2003 SF288)
Classification:
Main-belt Asteroid
SPK-ID:
2437985
[
Ephemeris
|
Orbit Diagram
|
Orbital Elements
|
Mission Design
|
Physical Parameters
|
Discovery Circumstances
]
[ show orbit diagram ]
Orbital Elements at Epoch 2458600.5 (2019-Apr-27.0) TDB
Reference:
JPL 9
(heliocentric ecliptic J2000)
Element
Value
Uncertainty (1-sigma)
Units
e
.152873813805107
1.1887e-07
a
2.599832924423491
3.5485e-08
au
q
2.202386550010787
3.2713e-07
au
i
11.40289923338391
7.9395e-06
deg
node
243.5420745170204
4.8335e-05
deg
peri
60.1986590631284
5.4742e-05
deg
M
321.0626121985681
2.6431e-05
deg
t
p
2458766.107841903248
(2019-Oct-09.60784190)
0.00011431
TDB
period
1531.145935860054
4.19
3.1347e-05
8.582e-08
d
yr
n
.2351180194968064
4.8136e-09
deg/d
Q
2.997279298836194
4.0909e-08
au
Orbit Determination Parameters
# obs. used (total)
110
data-arc span
6714 days (18.38 yr)
first obs. used
2001-02-20
last obs. used
2019-07-10
planetary ephem.
DE431
SB-pert. ephem.
SB431-N16
condition code
0
norm. resid. RMS
.54223
source
ORB
producer
Otto Matic
solution date
2019-Sep-24 07:38:07
Additional Information
Earth MOID
= 1.21145 au
Jupiter MOID
= 2.24445 au
T_jup
= 3.371
[ show covariance matrix ]
[
Ephemeris
|
Orbit Diagram
|
Orbital Elements
|
Mission Design
|
Physical Parameters
|
Discovery Circumstances
]
Physical Parameter Table
Parameter
Symbol
Value
Units
Sigma
Reference
Notes
absolute magnitude
H
16.5
n/a
MPO434614
437985 (2003 SF288)
Discovered 2003-Sep-30 by Spacewatch at Kitt Peak
Reference:
Last Updated:
2015-07-06
Alternate Designations
2003 SF288
= 2007 RD150
[
Ephemeris
|
Orbit Diagram
|
Orbital Elements
|
Mission Design
|
Physical Parameters
|
Discovery Circumstances
]
2019-Dec-11 17:41 UT
(server date/time)
Site Manager:
Ryan S. Park
Webmaster
:
Alan B. Chamberlin